Total_Precipitation_Accumulation
0.01 0.05 0.19 0.38 0.74 1.24 1.31 0.85 0.71 0.47 0.37 0.39 0.31 0.28 0.35 0.54 0.69 0.91 0.37 0.13 0.05 0.03 0.07 0.14 0.15 0.12 0.11 0.13 0.19 0.22 0.25 0.32 0.39 0.42 0.44 0.45 0.46 0.42 0.38 0.35 0.32 0.32 0.26 0.23 0.24 0.25 0.25 0.25 0.26
0.02 0.05 0.21 0.42 0.91 1.48 1.23 0.61 0.44 0.36 0.33 0.36 0.34 0.34 0.50 0.51 0.38 0.36 0.21 0.11 0.05 0.02 0.04 0.07 0.11 0.10 0.09 0.11 0.15 0.20 0.22 0.23 0.26 0.34 0.37 0.36 0.38 0.38 0.37 0.34 0.34 0.30 0.23 0.21 0.20 0.22 0.22 0.21 0.20
0.02 0.06 0.21 0.43 0.80 1.07 0.86 0.49 0.33 0.28 0.34 0.48 0.51 0.42 0.59 0.53 0.39 0.35 0.19 0.08 0.06 0.05 0.08 0.08 0.09 0.09 0.08 0.10 0.13 0.18 0.22 0.21 0.25 0.30 0.30 0.30 0.32 0.34 0.34 0.36 0.36 0.33 0.25 0.22 0.21 0.20 0.18 0.16 0.16
0.02 0.08 0.19 0.34 0.47 0.48 0.46 0.36 0.28 0.29 0.34 0.46 0.56 0.54 0.60 0.41 0.25 0.23 0.16 0.09 0.05 0.06 0.11 0.11 0.10 0.09 0.08 0.08 0.11 0.15 0.18 0.21 0.24 0.26 0.26 0.30 0.35 0.36 0.31 0.35 0.34 0.32 0.27 0.24 0.24 0.21 0.15 0.15 0.16
0.03 0.08 0.19 0.32 0.37 0.37 0.34 0.32 0.30 0.37 0.42 0.50 0.56 0.73 0.72 0.47 0.31 0.22 0.16 0.11 0.05 0.06 0.08 0.09 0.11 0.10 0.10 0.10 0.10 0.13 0.17 0.20 0.20 0.24 0.30 0.32 0.35 0.36 0.35 0.31 0.28 0.26 0.23 0.21 0.26 0.26 0.23 0.22 0.22
0.03 0.05 0.12 0.23 0.30 0.33 0.30 0.26 0.23 0.31 0.46 0.61 0.69 0.78 0.81 0.61 0.44 0.31 0.20 0.16 0.10 0.07 0.10 0.13 0.16 0.14 0.13 0.13 0.13 0.16 0.19 0.20 0.21 0.23 0.26 0.27 0.26 0.28 0.31 0.29 0.27 0.25 0.24 0.26 0.26 0.26 0.29 0.34 0.34
0.02 0.03 0.06 0.13 0.20 0.22 0.23 0.26 0.24 0.28 0.44 0.60 0.67 0.88 0.96 0.80 0.58 0.41 0.32 0.33 0.32 0.19 0.16 0.19 0.22 0.23 0.21 0.22 0.24 0.24 0.25 0.24 0.23 0.25 0.28 0.27 0.27 0.28 0.29 0.28 0.27 0.26 0.28 0.29 0.29 0.27 0.28 0.33 0.36
0.01 0.02 0.03 0.08 0.14 0.21 0.18 0.21 0.23 0.30 0.33 0.45 0.54 0.75 0.99 0.83 0.60 0.60 0.70 0.67 0.70 0.50 0.34 0.32 0.36 0.44 0.37 0.30 0.31 0.31 0.31 0.29 0.30 0.32 0.34 0.37 0.38 0.37 0.39 0.37 0.36 0.35 0.36 0.36 0.36 0.34 0.34 0.37 0.37
0.01 0.01 0.02 0.05 0.09 0.14 0.11 0.16 0.21 0.19 0.24 0.32 0.43 0.55 0.75 0.65 0.62 0.86 1.14 0.99 0.93 0.78 0.55 0.42 0.38 0.48 0.53 0.46 0.39 0.43 0.44 0.42 0.44 0.53 0.54 0.61 0.72 0.70 0.73 0.60 0.64 0.65 0.67 0.67 0.65 0.59 0.56 0.50 0.46
0.00 0.01 0.01 0.02 0.04 0.06 0.07 0.14 0.18 0.21 0.39 0.65 0.75 0.76 0.76 0.83 0.92 1.15 1.27 1.14 1.05 0.98 0.74 0.61 0.52 0.48 0.53 0.54 0.66 0.77 0.75 0.74 0.80 0.94 0.96 1.15 1.24 1.15 0.83 0.86 1.09 1.27 1.33 1.25 1.26 1.21 1.01 0.86 0.83
0.00 0.00 0.01 0.01 0.02 0.03 0.06 0.09 0.15 0.24 0.54 0.91 1.13 1.14 1.05 1.20 1.42 1.58 1.63 1.58 1.41 1.30 0.98 0.77 0.71 0.71 0.70 0.81 0.80 0.92 1.09 1.23 1.22 1.19 1.32 1.50 1.39 1.15 0.98 1.09 1.29 1.47 1.58 1.70 1.98 1.99 1.64 1.64 1.71
0.00 0.00 0.00 0.01 0.01 0.02 0.05 0.07 0.16 0.35 0.72 0.89 1.09 1.19 1.12 1.32 1.52 1.65 2.10 2.15 1.73 1.44 1.30 1.15 1.03 1.02 1.07 0.99 1.07 1.08 1.10 1.17 1.22 1.37 1.45 1.58 1.66 1.55 1.45 1.54 1.62 1.79 1.92 2.29 2.29 2.41 2.30 2.12 1.87
0.00 0.00 0.00 0.01 0.01 0.01 0.03 0.07 0.16 0.35 0.54 0.63 0.84 0.95 0.93 1.28 1.59 1.96 2.53 2.48 2.15 1.89 1.69 1.51 1.49 1.51 1.46 1.40 1.42 1.28 1.28 1.28 1.36 1.51 1.67 1.74 1.80 1.77 1.76 1.84 1.90 1.74 1.87 2.16 2.40 2.35 2.51 2.54 2.31
0.00 0.00 0.01 0.01 0.02 0.02 0.03 0.10 0.20 0.40 0.53 0.72 0.75 0.92 1.13 1.48 1.75 2.19 2.54 2.77 2.60 2.26 1.97 1.82 1.76 1.81 1.86 1.79 1.81 1.74 1.50 1.52 1.51 1.69 1.75 1.86 1.92 1.98 2.07 2.08 2.04 1.84 1.85 2.09 2.33 2.29 2.59 2.51 2.47
0.01 0.02 0.04 0.03 0.04 0.05 0.06 0.21 0.41 0.54 0.68 0.83 0.95 1.05 1.26 1.60 2.08 2.34 2.59 2.90 2.89 2.73 2.51 2.28 2.15 2.28 2.43 2.44 2.34 2.17 1.93 1.72 1.73 1.83 1.87 1.95 1.96 2.12 2.11 2.05 2.02 1.99 1.97 2.16 2.27 2.34 2.50 2.34 2.23
0.01 0.03 0.10 0.10 0.07 0.07 0.13 0.48 0.58 0.50 0.76 0.95 1.02 1.18 1.55 1.94 2.35 2.81 2.94 2.85 2.87 2.97 2.89 2.56 2.33 2.74 3.03 2.98 2.86 2.65 2.34 2.05 1.91 1.95 1.92 1.98 2.03 2.14 2.28 2.07 1.97 2.19 2.18 2.32 2.57 2.55 2.70 2.78 2.68
0.01 0.05 0.10 0.14 0.09 0.10 0.22 0.66 0.58 0.44 0.62 0.81 1.05 1.23 1.70 2.22 2.56 2.72 2.78 2.93 3.06 3.14 3.08 2.93 2.98 3.08 3.18 3.26 3.30 3.03 2.76 2.45 2.15 2.00 1.91 1.93 2.03 2.24 2.55 2.37 2.35 2.38 2.39 2.41 2.17 2.69 3.01 3.01 2.86
0.01 0.04 0.09 0.15 0.12 0.15 0.26 0.50 0.53 0.48 0.64 0.86 1.19 1.41 1.56 1.94 2.39 2.50 2.61 3.06 3.13 3.29 3.38 3.24 3.31 3.43 3.67 3.87 3.98 3.57 3.13 2.77 2.45 2.22 2.16 2.18 2.37 2.52 2.73 2.50 2.46 2.48 2.56 2.51 2.59 2.97 2.96 2.73 2.73
0.01 0.04 0.11 0.15 0.14 0.20 0.30 0.50 0.64 0.63 0.81 1.20 1.43 1.45 1.42 1.72 2.22 2.58 2.83 3.01 3.34 3.50 3.62 3.58 3.73 4.06 4.35 4.19 3.83 3.58 3.23 2.99 2.79 2.54 2.36 2.35 2.34 2.48 2.72 2.55 2.71 2.62 2.47 2.45 2.56 2.83 2.85 2.57 2.78
0.02 0.06 0.14 0.16 0.15 0.25 0.38 0.60 0.76 0.85 1.10 1.27 1.21 1.23 1.40 1.77 2.27 2.63 2.91 3.07 3.32 3.57 3.95 4.02 4.14 4.44 4.53 4.33 4.19 3.99 3.77 3.37 3.23 3.06 2.81 2.47 2.30 2.38 2.43 2.66 2.48 2.44 2.47 2.42 2.54 2.72 2.57 2.25 2.69
0.04 0.07 0.13 0.14 0.21 0.34 0.43 0.82 0.99 1.11 1.25 1.24 1.21 1.42 1.46 1.56 1.98 2.26 2.38 2.58 2.76 2.87 3.09 3.35 3.78 4.25 4.36 4.39 4.31 4.21 4.16 3.62 3.33 3.13 2.86 2.55 2.32 2.24 2.32 2.43 2.44 2.35 2.28 2.28 2.47 2.50 2.46 2.34 2.46
0.06 0.06 0.06 0.10 0.19 0.45 0.52 1.04 1.25 1.45 1.54 1.34 1.31 1.28 1.30 1.56 1.89 1.92 1.79 1.94 2.18 2.17 2.45 2.82 3.24 3.54 3.74 3.86 3.83 3.78 3.63 3.37 3.26 3.10 2.69 2.41 2.22 2.17 2.19 2.23 2.20 2.17 2.09 2.11 2.03 2.11 2.44 2.54 2.32
0.05 0.04 0.07 0.11 0.19 0.41 0.46 0.81 1.29 1.66 1.78 1.40 1.28 1.19 1.29 1.55 1.61 1.58 1.60 1.71 1.87 2.03 2.33 2.59 2.87 3.11 3.26 3.31 3.33 3.33 3.18 3.04 2.97 2.84 2.53 2.25 2.10 2.01 1.86 1.89 2.03 2.02 1.93 1.87 1.89 2.03 2.14 2.15 2.12
0.04 0.07 0.13 0.20 0.37 0.71 0.61 0.71 1.21 1.55 1.41 1.21 1.17 1.00 1.10 1.33 1.43 1.49 1.57 1.70 1.82 2.10 2.43 2.67 2.87 3.06 3.09 2.85 2.72 2.68 2.69 2.66 2.54 2.35 2.16 1.95 1.84 1.76 1.60 1.66 1.79 1.80 1.78 1.76 1.71 1.76 1.86 1.91 1.96
0.08 0.17 0.56 0.92 1.24 1.14 0.72 0.82 1.39 1.26 0.91 0.84 0.93 0.92 0.94 1.01 1.16 1.28 1.45 1.66 1.84 1.92 1.98 2.32 2.66 2.84 2.78 2.54 2.36 2.24 2.29 2.32 2.22 2.05 1.97 1.86 1.67 1.54 1.49 1.50 1.52 1.53 1.55 1.58 1.61 1.62 1.69 1.81 1.88
0.13 0.24 0.69 0.95 0.99 0.97 0.78 1.17 1.60 1.20 0.81 0.67 0.77 0.79 0.70 0.66 0.63 0.72 0.90 1.02 1.11 1.13 1.16 1.28 1.50 1.72 1.80 1.72 1.71 1.70 1.73 1.74 1.72 1.80 1.70 1.68 1.57 1.44 1.43 1.35 1.29 1.30 1.33 1.36 1.51 1.56 1.66 1.78 1.84
0.24 0.28 0.29 0.49 0.68 1.01 1.02 1.19 1.21 0.96 0.78 0.73 0.83 0.77 0.61 0.55 0.50 0.57 0.67 0.68 0.77 0.80 0.84 0.98 1.17 1.32 1.37 1.36 1.36 1.37 1.36 1.40 1.43 1.43 1.39 1.40 1.40 1.35 1.33 1.31 1.33 1.25 1.25 1.33 1.43 1.47 1.50 1.64 1.71
0.20 0.28 0.42 0.67 0.90 1.02 1.09 1.36 1.49 1.32 1.08 0.96 0.92 0.78 0.58 0.48 0.44 0.49 0.58 0.58 0.68 0.81 0.96 1.11 1.22 1.25 1.22 1.23 1.21 1.11 1.20 1.22 1.25 1.20 1.13 1.12 1.13 1.16 1.15 1.14 1.16 1.17 1.16 1.18 1.29 1.35 1.42 1.52 1.55
0.23 0.30 0.45 0.62 0.69 0.87 1.19 1.27 1.00 0.94 0.97 1.05 1.06 0.88 0.61 0.46 0.42 0.45 0.54 0.57 0.63 0.75 0.88 1.01 1.13 1.23 1.19 1.13 1.14 1.16 1.17 1.16 1.14 1.09 1.00 1.04 1.06 1.05 1.01 1.03 1.07 1.11 1.15 1.19 1.23 1.22 1.32 1.35 1.37
0.22 0.32 0.47 0.70 0.76 0.80 0.93 0.99 0.58 0.57 0.68 0.81 0.81 0.65 0.48 0.41 0.40 0.45 0.49 0.50 0.59 0.70 0.79 0.80 0.87 1.02 1.04 1.02 1.11 1.24 1.22 1.15 1.06 0.97 0.91 0.96 0.99 0.99 0.97 1.00 1.04 1.04 1.08 1.17 1.23 1.25 1.30 1.32 1.29